• In Russia
  • List of Countries
  • For 7 days
  • Water Temperature
  • Satellite Maps
  • Weather Map
  • Weather Widgets
  • user-avatar
    Login

    Hourly Weather Barra

    Today, 20 July, Thursday

    Time Temperature Precipitation Wind Pressure Humidity
    00:00 +18°C° 0 mm 4 mps 751 mmHg 49%
    01:00 +18°C° 0 mm 4 mps 751 mmHg 45%
    02:00 +17°C° 0 mm 4 mps 751 mmHg 44%
    03:00 +15°C° 0 mm 4 mps 751 mmHg 44%
    04:00 +15°C° 0 mm 4 mps 750 mmHg 43%
    05:00 +14°C° 0 mm 4 mps 751 mmHg 42%
    06:00 +14°C° 0 mm 4 mps 751 mmHg 41%
    07:00 +13°C° 0 mm 4 mps 751 mmHg 40%
    08:00 +17°C° 0 mm 4 mps 751 mmHg 36%
    09:00 +19°C° 0 mm 4 mps 751 mmHg 32%
    10:00 +22°C° 0 mm 4 mps 751 mmHg 27%
    11:00 +23°C° 0 mm 4 mps 751 mmHg 27%
    12:00 +25°C° 0 mm 4 mps 751 mmHg 27%
    13:00 +26°C° 0 mm 4 mps 750 mmHg 27%
    14:00 +26°C° 0 mm 4 mps 750 mmHg 31%
    15:00 +25°C° 0 mm 4 mps 750 mmHg 35%
    16:00 +24°C° 0 mm 3 mps 749 mmHg 41%
    17:00 +21°C° 0 mm 3 mps 750 mmHg 50%
    18:00 +19°C° 0 mm 3 mps 750 mmHg 60%
    19:00 +17°C° 0 mm 2 mps 750 mmHg 69%
    20:00 +17°C° 0 mm 2 mps 751 mmHg 72%
    21:00 +17°C° 0 mm 2 mps 751 mmHg 75%
    22:00 +17°C° 0 mm 2 mps 751 mmHg 78%
    23:00 +16°C° 0 mm 2 mps 751 mmHg 81%

    Tomorrow, 21 July, Friday

    Time Temperature Precipitation Wind Pressure Humidity
    00:00 +16°C° 0 mm 2 mps 751 mmHg 84%
    01:00 +16°C° 0 mm 2 mps 751 mmHg 86%
    02:00 +16°C° 0 mm 2 mps 751 mmHg 88%
    03:00 +16°C° 0 mm 2 mps 751 mmHg 90%
    04:00 +16°C° 0 mm 2 mps 751 mmHg 92%
    05:00 +16°C° 0 mm 2 mps 751 mmHg 92%
    06:00 +16°C° 0 mm 2 mps 751 mmHg 93%
    07:00 +16°C° 0 mm 2 mps 751 mmHg 93%
    08:00 +18°C° 0 mm 3 mps 752 mmHg 82%
    09:00 +21°C° 0 mm 3 mps 752 mmHg 72%
    10:00 +24°C° 0 mm 3 mps 752 mmHg 61%
    11:00 +25°C° 0 mm 3 mps 752 mmHg 59%
    12:00 +26°C° 0 mm 4 mps 751 mmHg 57%
    13:00 +26°C° 0 mm 4 mps 751 mmHg 55%
    14:00 +26°C° 0 mm 4 mps 751 mmHg 56%
    15:00 +25°C° 0 mm 4 mps 750 mmHg 58%
    16:00 +25°C° 0 mm 3 mps 750 mmHg 59%
    17:00 +22°C° 0 mm 3 mps 750 mmHg 66%
    18:00 +20°C° 0 mm 3 mps 751 mmHg 74%
    19:00 +19°C° 0 mm 2 mps 751 mmHg 81%
    20:00 +18°C° 0 mm 2 mps 752 mmHg 83%
    21:00 +18°C° 0 mm 2 mps 752 mmHg 85%
    22:00 +18°C° 0 mm 2 mps 752 mmHg 87%
    23:00 +18°C° 0 mm 2 mps 752 mmHg 88%

    Day after tomorrow, 22 July, Saturday

    Time Temperature Precipitation Wind Pressure Humidity
    00:00 +18°C° 0 mm 2 mps 752 mmHg 89%
    01:00 +17°C° 0 mm 2 mps 752 mmHg 90%
    02:00 +17°C° 0 mm 3 mps 752 mmHg 90%
    03:00 +17°C° 0 mm 3 mps 752 mmHg 91%
    04:00 +17°C° 0 mm 3 mps 752 mmHg 91%
    05:00 +18°C° 0 mm 3 mps 752 mmHg 91%
    06:00 +18°C° 0 mm 3 mps 752 mmHg 91%
    07:00 +18°C° 0 mm 3 mps 753 mmHg 91%
    08:00 +19°C° 0 mm 4 mps 753 mmHg 86%
    09:00 +21°C° 0 mm 4 mps 753 mmHg 81%
    10:00 +22°C° 0 mm 4 mps 754 mmHg 75%
    11:00 +23°C° 0 mm 4 mps 753 mmHg 71%
    12:00 +25°C° 0 mm 4 mps 752 mmHg 68%
    13:00 +25°C° 0 mm 4 mps 752 mmHg 64%
    14:00 +25°C° 0 mm 4 mps 751 mmHg 64%
    15:00 +25°C° 0 mm 4 mps 751 mmHg 65%
    16:00 +25°C° 0 mm 4 mps 751 mmHg 66%
    17:00 +22°C° 0 mm 4 mps 751 mmHg 72%
    18:00 +21°C° 0 mm 3 mps 752 mmHg 78%
    19:00 +19°C° 0 mm 3 mps 752 mmHg 83%
    20:00 +19°C° 0 mm 3 mps 752 mmHg 84%
    21:00 +19°C° 0 mm 3 mps 753 mmHg 85%
    22:00 +18°C° 0 mm 3 mps 753 mmHg 86%
    23:00 +18°C° 0 mm 3 mps 753 mmHg 88%

    23 July, Sunday

    Time Temperature Precipitation Wind Pressure Humidity
    00:00 +18°C° 0 mm 3 mps 753 mmHg 89%
    01:00 +18°C° 0 mm 3 mps 753 mmHg 90%
    02:00 +18°C° 0 mm 3 mps 752 mmHg 90%
    03:00 +18°C° 0 mm 3 mps 752 mmHg 91%
    04:00 +18°C° 0 mm 3 mps 752 mmHg 91%
    05:00 +18°C° 0 mm 3 mps 752 mmHg 92%
    06:00 +19°C° 0 mm 3 mps 753 mmHg 93%
    07:00 +19°C° 0 mm 3 mps 753 mmHg 94%
    08:00 +20°C° 0 mm 3 mps 753 mmHg 86%
    09:00 +22°C° 0 mm 3 mps 753 mmHg 78%
    10:00 +25°C° 0 mm 4 mps 754 mmHg 71%
    11:00 +25°C° 0 mm 4 mps 753 mmHg 68%
    12:00 +26°C° 0 mm 4 mps 752 mmHg 66%
    13:00 +27°C° 0 mm 4 mps 751 mmHg 64%
    14:00 +26°C° 0 mm 4 mps 751 mmHg 64%
    15:00 +26°C° 0 mm 4 mps 750 mmHg 65%
    16:00 +26°C° 0 mm 4 mps 750 mmHg 66%
    17:00 +24°C° 0 mm 3 mps 750 mmHg 73%
    18:00 +22°C° 0 mm 3 mps 751 mmHg 81%
    19:00 +20°C° 0 mm 3 mps 752 mmHg 88%
    20:00 +20°C° 0.1 mm 3 mps 752 mmHg 90%
    21:00 +20°C° 0.1 mm 3 mps 752 mmHg 92%
    22:00 +20°C° 0.1 mm 3 mps 753 mmHg 94%
    23:00 +20°C° 0.1 mm 3 mps 753 mmHg 93%

    24 July, Monday

    Time Temperature Precipitation Wind Pressure Humidity
    00:00 +20°C° 0.1 mm 4 mps 752 mmHg 93%
    01:00 +21°C° 0.1 mm 4 mps 752 mmHg 93%
    02:00 +20°C° 0.1 mm 4 mps 752 mmHg 93%
    03:00 +20°C° 0.1 mm 4 mps 752 mmHg 94%
    04:00 +20°C° 0.1 mm 4 mps 752 mmHg 95%
    05:00 +20°C° 0 mm 4 mps 752 mmHg 95%
    06:00 +20°C° 0 mm 4 mps 752 mmHg 95%
    07:00 +19°C° 0 mm 4 mps 753 mmHg 95%
    08:00 +21°C° 0 mm 4 mps 753 mmHg 89%
    09:00 +22°C° 0 mm 4 mps 754 mmHg 83%
    10:00 +23°C° 0 mm 4 mps 754 mmHg 76%
    11:00 +25°C° 0 mm 4 mps 753 mmHg 72%
    12:00 +25°C° 0 mm 4 mps 753 mmHg 68%
    13:00 +26°C° 0 mm 4 mps 752 mmHg 64%
    14:00 +26°C° 0 mm 4 mps 752 mmHg 65%
    15:00 +26°C° 0 mm 4 mps 751 mmHg 66%
    16:00 +25°C° 0 mm 4 mps 751 mmHg 67%
    17:00 +23°C° 0 mm 4 mps 752 mmHg 74%
    18:00 +21°C° 0 mm 4 mps 752 mmHg 81%
    19:00 +20°C° 0 mm 3 mps 753 mmHg 88%
    20:00 +20°C° 0 mm 3 mps 753 mmHg 90%
    21:00 +19°C° 0 mm 3 mps 753 mmHg 91%
    22:00 +19°C° 0 mm 3 mps 754 mmHg 93%
    23:00 +19°C° 0.1 mm 3 mps 753 mmHg 93%

    25 July, Tuesday

    Time Temperature Precipitation Wind Pressure Humidity
    00:00 +19°C° 0.1 mm 3 mps 753 mmHg 93%
    01:00 +19°C° 0.1 mm 3 mps 753 mmHg 93%
    02:00 +19°C° 0.1 mm 3 mps 753 mmHg 93%
    03:00 +19°C° 0.1 mm 3 mps 753 mmHg 93%
    04:00 +19°C° 0.1 mm 3 mps 753 mmHg 94%
    05:00 +19°C° 0.1 mm 4 mps 753 mmHg 93%
    06:00 +20°C° 0.1 mm 4 mps 753 mmHg 93%
    07:00 +20°C° 0.1 mm 4 mps 754 mmHg 93%
    08:00 +20°C° 0.1 mm 4 mps 754 mmHg 90%
    09:00 +21°C° 0.1 mm 5 mps 754 mmHg 86%
    10:00 +22°C° 0.1 mm 5 mps 754 mmHg 83%
    11:00 +23°C° 0 mm 5 mps 754 mmHg 74%
    12:00 +25°C° 0 mm 5 mps 753 mmHg 66%
    13:00 +26°C° 0 mm 5 mps 752 mmHg 58%
    14:00 +26°C° 0 mm 5 mps 752 mmHg 59%
    15:00 +25°C° 0 mm 5 mps 752 mmHg 61%
    16:00 +25°C° 0 mm 5 mps 751 mmHg 62%
    17:00 +22°C° 0 mm 5 mps 752 mmHg 69%
    18:00 +21°C° 0 mm 5 mps 752 mmHg 76%
    19:00 +20°C° 0 mm 5 mps 753 mmHg 84%
    20:00 +19°C° 0 mm 5 mps 753 mmHg 85%
    21:00 +19°C° 0 mm 5 mps 754 mmHg 87%
    22:00 +19°C° 0 mm 5 mps 754 mmHg 88%
    23:00 +19°C° 0.1 mm 4 mps 754 mmHg 89%
    Show more